Location: Newark
(44.6303°N, 123.0961°W)
Time: 01:06:30
(UTC+00:00)

Envisat - Pass Details

Date: 29 January 2020
Orbit: 764 x 766 km, 98.1° (Epoch: 21 February)

Event Time Altitude Azimuth Distance (km) Brightness Sun altitude
Rises 01:37:11 0° 155° (SSE) 3,220 6.2 -4.4°
Reaches altitude 10° 01:39:30 10° 152° (SSE) 2,298 5.4 -4.8°
Maximum altitude 01:44:30 62° 73° (ENE) 859 3.0 -5.6°
Drops below altitude 10° 01:49:31 10° 353° (N) 2,313 5.4 -6.5°
Sets 01:51:51 0° 350° (N) 3,244 6.2 -6.9°
